This is the latest recevied weather packets stored in our database for station/object N6ZHV-13. If no packets are shown the sender has not sent any weather packets the latest 10 day(s).
| Time | Temp. | Humidity | Pressure | Rain* | Wind** | Luminosity | Snow |
|---|---|---|---|---|---|---|---|
| 1777935293 | 17.22° C | 61% | 1016.1 hPa | 0 mm | - | - | - |
| 1777934993 | 17.78° C | 59% | 1016.3 hPa | 0 mm | - | - | - |
| 1777934693 | 17.78° C | 60% | 1016.4 hPa | 0 mm | - | - | - |
| 1777934393 | 17.78° C | 59% | 1016.5 hPa | 0 mm | - | - | - |
| 1777934093 | 17.22° C | 59% | 1016.5 hPa | 0 mm | - | - | - |
| 1777933793 | 17.78° C | 58% | 1016.5 hPa | 0 mm | - | - | - |
| 1777933493 | 17.78° C | 57% | 1016.6 hPa | 0 mm | - | - | - |
| 1777933193 | 17.78° C | 57% | 1016.6 hPa | 0 mm | - | - | - |
| 1777932893 | 18.33° C | 57% | 1016.6 hPa | 0 mm | - | - | - |
| 1777932593 | 17.78° C | 56% | 1016.7 hPa | 0 mm | - | - | - |
| 1777932293 | 18.33° C | 56% | 1016.7 hPa | 0 mm | - | - | - |
| 1777931993 | 18.33° C | 58% | 1016.8 hPa | 0 mm | - | - | - |
| 1777931693 | 18.33° C | 54% | 1016.8 hPa | 0 mm | - | - | - |
| 1777931393 | 18.33° C | 53% | 1016.7 hPa | 0 mm | - | - | - |
| 1777931093 | 18.89° C | 52% | 1016.8 hPa | 0 mm | - | - | - |
| 1777930793 | 18.33° C | 50% | 1016.8 hPa | 0 mm | - | - | - |
| 1777930493 | 18.89° C | 51% | 1016.9 hPa | 0 mm | - | - | - |
| 1777930193 | 18.89° C | 50% | 1017 hPa | 0 mm | - | - | - |
| 1777929893 | 19.44° C | 49% | 1017.1 hPa | 0 mm | - | - | - |
| 1777929593 | 18.89° C | 52% | 1017.2 hPa | 0 mm | - | - | - |
| 1777929293 | 18.89° C | 54% | 1017.3 hPa | 0 mm | - | - | - |
| 1777928993 | 18.33° C | 54% | 1017.4 hPa | 0 mm | - | - | - |
| 1777928693 | 18.33° C | 53% | 1017.4 hPa | 0 mm | - | - | - |
| 1777928393 | 18.89° C | 51% | 1017.4 hPa | 0 mm | - | - | - |
| 1777928093 | 18.33° C | 53% | 1017.4 hPa | 0 mm | - | - | - |
* Rain latest hour (hover to see other rain measurements)
** Current wind speed in m/s (hover to see current wind gust speed)